Regional Weather Roundup
Issued by NWS

Current Version | Previous Version | Text Only | Print | Product List | Glossary On
Versions: 1 2 3 4 5 6 7 8 9 10 11 12 13 14 15 16 17 18 19 20 21 22 23 24 25 26 27 28
000
ASUS42 KTBW 251310
RWRFL
FLORIDA REGIONAL WEATHER ROUNDUP
NATIONAL WEATHER SERVICE TAMPA BAY RUSKIN FL
900 AM EDT SAT OCT 25 2014

NOTE: "FAIR" INDICATES FEW OR NO CLOUDS BELOW 12,000 FEET WITH NO
SIGNIFICANT WEATHER AND/OR OBSTRUCTIONS TO VISIBILITY.


FLZ001>010-012>015-112-114-115-251400-
PANHANDLE FLORIDA

CITY           SKY/WX    TMP DP  RH WIND       PRES   REMARKS
PENSACOLA      SUNNY     57  45  64 N8        30.09R
PENSACOLA NAS  SUNNY     55  49  80 N6        30.09R
MILTON NAS     SUNNY     54  45  71 N5        30.10R
CRESTVIEW      SUNNY     52  45  77 N5        30.10R
DUKE FIELD     FAIR      48  45  89 CALM      30.09R
VALPARAISO     SUNNY     55  43  63 N8        30.08R
MARY ESTHER    SUNNY     53  44  69 N7        30.08R
PANAMA CITY    FAIR      54  46  74 N7        30.06R
TYNDALL AFB    SUNNY     58  49  71 N8        30.06R
APALACHICOLA   SUNNY     56  51  84 CALM      30.05R

STATION/POSITION SKY/WX   TEMP    WIND        PRES    WAVE   SWELL
                          AIR SEA DIR/SP/G            HT/PER HT/PER
                          (F)     (DEG/KT/KT) (MB)    (FT/S) (FT/S)
30.1N   87.6W              67 77   10/ 14/ 17 1018.5R   2/ 3
29.2N   88.2W              72 78   30/ 14/ 17 1019.2R   4/ 5   2/ 7
28.8N   86.0W              74 79   10/ 12/ 14 1017.3R   2/ 4   2/ 6
PANAMA CITY BEAC           55 75   10/  8/ 12 1017.9R
CAPE SAN BLAS    NOT AVBL
TOWER C                    67      10/ 12/ 14 1016.9R
28.5N   84.5W              73 80  360/  8/ 12 1016.5R   1/ 3

$$
FLZ011-016>038-118-127-128-134-139-239-251400-
NORTH FLORIDA

CITY           SKY/WX    TMP DP  RH WIND       PRES   REMARKS
MARIANNA       LGT RAIN  50  47  89 CALM      30.06R
TALLAHASSEE    SUNNY     52  45  77 CALM      30.04R
PERRY          SUNNY     50  48  93 CALM      30.04R
CROSS CITY       N/A     54  50  86 CALM      30.02R
LAKE CITY      FAIR      52  52 100 CALM      30.02R
GAINESVILLE    SUNNY     55  54  96 NW3       30.02R
MAYPORT NAS    SUNNY     61  54  77 NW6       30.00R
JACKSONVILLE   SUNNY     56  54  93 CALM      30.01R
JAX NAS        SUNNY     62  52  69 NW6       30.02R
JAX CRAIG      SUNNY     62  56  80 NW5       30.01R
JAX CECIL      SUNNY     50  50 100 CALM      30.02R
FERNANDINA BEA FAIR      63  59  88 NW5       29.99S
ST AUGUSTINE   SUNNY     62  54  74 NW8       30.01R

STATION/POSITION SKY/WX   TEMP    WIND        PRES    WAVE   SWELL
                          AIR SEA DIR/SP/G            HT/PER HT/PER
                          (F)     (DEG/KT/KT) (MB)    (FT/S) (FT/S)
SHELL POINT                53      10/  2/  4   N/A
KEATON BEACH               59      CALM  /  1 1016.9R
CEDAR KEY                  58      30/  3/  4 1016.6R
FERNANDINA                 60 73  340/  5/  7 1015.6R
30.7N   81.3W                 75                N/A     2/10
MAYPORT                    60 76  320/  6/  8   N/A
31.4N   80.9W              67 75  340/ 12/ 14 1015.9R   2/11   2/11
ST AUGUSTINE               64     330/  9/ 10 1016.3R

$$
FLZ040-043>046-052-053-057-058-063-144-251400-
INTERIOR CENTRAL FLORIDA

CITY           SKY/WX    TMP DP  RH WIND       PRES   REMARKS
OCALA          SUNNY     52  48  87 CALM      30.01R
THE VILLAGES     N/A     59  54  82 CALM      29.92R
LEESBURG       SUNNY     65  53  65 N5        30.01R
SANFORD        SUNNY     66  54  65 N9        29.99R
ORLANDO EXEC   SUNNY     66  53  63 N7        29.99R
ORLANDO INTL   SUNNY     68  53  58 N9        29.99S
KISSIMMEE      SUNNY     66  54  63 N8        29.99S
WINTER HAVEN   SUNNY     64  55  72 N8        30.01R
LAKELAND       SUNNY     61  55  82 N6        30.00R
BARTOW         SUNNY     64  54  68 N8        30.01R
OKEECHOBEE       N/A    N/A N/A N/A MISG        N/A

$$
FLZ041-047-054-059-064-141-147-251400-
EAST CENTRAL FLORIDA

CITY           SKY/WX    TMP DP  RH WIND       PRES   REMARKS
ORMOND BEACH   SUNNY     59  54  82 NW6       29.99R
DAYTONA BEACH  MOSUNNY   63  52  67 NW8       29.99R
DELAND         SUNNY     64  54  68 NW7       30.00S
NEW SMYRNA BEA SUNNY     64  54  68 NW7       29.99R
JFK SPACE CTR  MOSUNNY   68  58  71 NW9       29.96R
TITUSVILLE     SUNNY     66  55  68 NW12      29.97R
CAPE CANAVERAL SUNNY     68  60  76 NW12      29.95R
PATRICK AFB    SUNNY     69  59  71 NW14      29.96R
MELBOURNE      MOSUNNY   69  57  65 NW12      29.96R
VERO BEACH     SUNNY     66  60  81 NW9       29.95R
FT PIERCE      MOSUNNY   67  59  75 NW9       29.95R
STUART         MOSUNNY   66  59  77 NW7       29.95R

STATION/POSITION SKY/WX   TEMP    WIND        PRES    WAVE   SWELL
                          AIR SEA DIR/SP/G            HT/PER HT/PER
                          (F)     (DEG/KT/KT) (MB)    (FT/S) (FT/S)
28.5N   80.2W              76 80  350/  8/ 10 1013.7R
28.9N   78.5W              76 82  360/ 12/ 16 1013.2R   3/ 6   2/ 6
TRIDENT PIER               69 78  310/  9/ 12 1013.9S
28.4N   80.5W                 78                N/A     2/11
27.6N   80.2W                 79                N/A     4/11   2/11

$$
FLZ050-056-061-142-242-148-248-149-249-151-251-155-255-
160-260-251400-
WEST CENTRAL FLORIDA

CITY           SKY/WX    TMP DP  RH WIND       PRES   REMARKS
CRYSTAL RIVER  FAIR      54  52  94 CALM      30.01S
INVERNESS      FAIR      55  55 100 CALM      30.02R
BROOKSVILLE    SUNNY     58  54  86 CALM      30.02R
ZEPHYRHILLS    FAIR      55  55 100 CALM      30.02R
CLEARWATER     SUNNY     68  53  58 N12       30.00R
TAMPA INTL     MOSUNNY   66  52  60 NE5       30.01R
PLANT CITY     SUNNY     64  55  72 NE3       30.02R
MACDILL AFB    SUNNY     65  56  73 NE8       30.00S
ST PETERSBURG  SUNNY     69  56  62 N8        29.98S
SARASOTA       SUNNY     66  55  67 NE8       29.98R
VENICE           N/A     66  55  68 MISG      30.00R

STATION/POSITION SKY/WX   TEMP    WIND        PRES    WAVE   SWELL
                          AIR SEA DIR/SP/G            HT/PER HT/PER
                          (F)     (DEG/KT/KT) (MB)    (FT/S) (FT/S)
CEDAR KEY                  58      30/  3/  4 1016.6R
28.5N   84.5W              73 80  360/  8/ 12 1016.5R   1/ 3
27.3N   84.3W                 81                N/A     3/ 5
CLEARWATER BEACH NOT AVBL
MIDDLE TAMPA BAY           69      40/ 14/ 17 1015.9R
VENICE                     65 78   20/  8/ 10 1015.2R

$$
FLZ066-069-070-075>078-162-262-165-265-251400-
SOUTHWEST FLORIDA AND KEYS

CITY           SKY/WX    TMP DP  RH WIND       PRES   REMARKS
PUNTA GORDA    SUNNY     68  58  70 N12       30.00R
FT MYERS       SUNNY     67  58  72 N9        29.97R
SOUTHWEST INTL SUNNY     66  57  72 N8        29.97R
NAPLES         SUNNY     69  58  67 N12       29.96R
MARATHON       SUNNY     75  66  73 N13G21    29.92R
KEY WEST NAS   MOSUNNY   77  66  68 N12       29.93R
KEY WEST INTL  CLOUDY    76  68  76 N12       29.94R

STATION/POSITION SKY/WX   TEMP    WIND        PRES    WAVE   SWELL
                          AIR SEA DIR/SP/G            HT/PER HT/PER
                          (F)     (DEG/KT/KT) (MB)    (FT/S) (FT/S)
VENICE                     65 78   20/  8/ 10 1015.2R
NAPLES                     67 79  360/ 11/ 14 1015.0R
26.0N   85.6W              76 81   10/ 10/ 14 1016.3R   4/ 6   3/ 6
DRY TORTUGAS               77      20/ 17/ 21 1013.4R
NW FL BAY                  73      30/ 16/ 19 1012.6R
SAND KEY                   76      20/ 18/ 20 1013.5R
SOMBRERO KEY               74     360/ 20/ 21 1013.6R
LONG KEY                   72 76   10/ 18/ 21 1013.2R
MOLASSES REEF              73 81  350/ 18/ 19 1012.5R

$$
FLZ067-068-071>074-168-172>174-251400-
SOUTHEAST FLORIDA

CITY           SKY/WX    TMP DP  RH WIND       PRES   REMARKS
W PALM BEACH   MOSUNNY   70  62  76 NW10      29.92R
FT LAUDER-EXEC SUNNY     72  61  68 N9        29.92R
FT LAUDERDALE  MOSUNNY   73  63  70 N9        29.92R
POMPANO BEACH  MOSUNNY   73  61  65 NW10      29.92R
PEMBROKE PINES SUNNY     71  62  73 N10       29.94R
OPA LOCKA      SUNNY     72  62  71 N12       29.93R
MIAMI          MOSUNNY   73  61  65 NW9       29.93R
WEST KENDALL   SUNNY     74  63  68 N14       29.93R
HOMESTEAD      SUNNY     71  63  77 NW12      29.92R

STATION/POSITION SKY/WX   TEMP    WIND        PRES    WAVE   SWELL
                          AIR SEA DIR/SP/G            HT/PER HT/PER
                          (F)     (DEG/KT/KT) (MB)    (FT/S) (FT/S)
PORT EVERGLADES            72     320/ 10/ 15 1012.9
VIRGINIA KEY               73 78  350/  5/ 10 1013.4R
LAKE WORTH                 70 78  310/ 10/ 14 1013.0R
FOWEY ROCKS                73 81  340/ 20/ 21 1013.0
SETTLEMENT POINT           77     360/ 16/ 17 1013.3R

$$




USA.gov is the U.S. government's official web portal to all federal, state and local government web resources and services.